TimeMDT,TemperatureF,Dew PointF,Humidity,Sea Level PressureIn,VisibilityMPH,Wind Direction,Wind SpeedMPH,Gust SpeedMPH,PrecipitationIn,Events,Conditions,WindDirDegrees,DateUTC
12:51 AM,62.1,51.1,67,29.93,10.0,Calm,Calm,-,N/A,,Clear,0,2013-07-01 06:51:00
1:51 AM,82.0,42.1,24,29.89,10.0,SSW,9.2,17.3,N/A,,Clear,210,2013-07-01 07:51:00
2:51 AM,84.9,39.9,20,29.88,10.0,SSW,10.4,16.1,N/A,,Clear,210,2013-07-01 08:51:00
3:51 AM,66.0,44.1,45,29.93,10.0,Calm,Calm,-,N/A,,Clear,0,2013-07-01 09:51:00
4:51 AM,64.9,44.1,47,29.94,10.0,Calm,Calm,-,N/A,,Clear,0,2013-07-01 10:51:00
5:51 AM,62.1,45.0,53,29.96,10.0,Calm,Calm,-,N/A,,Clear,0,2013-07-01 11:51:00
6:51 AM,59.0,52.0,78,30.00,10.0,North,4.6,-,N/A,,Clear,10,2013-07-01 12:51:00
7:51 AM,71.1,46.9,42,30.00,10.0,Calm,Calm,-,N/A,,Clear,0,2013-07-01 13:51:00
8:51 AM,73.9,48.0,40,30.01,10.0,NNW,4.6,-,N/A,,Clear,340,2013-07-01 14:51:00
9:51 AM,80.1,46.0,30,30.00,10.0,NNE,6.9,-,N/A,,Clear,20,2013-07-01 15:51:00
10:51 AM,84.0,50.0,31,29.99,-9999.0,Variable,5.8,-,N/A,,Clear,0,2013-07-01 16:51:00
11:51 AM,88.0,52.0,29,29.97,-9999.0,North,-9999.0,-,N/A,,Clear,0,2013-07-01 17:51:00
12:51 PM,91.9,48.9,23,29.97,10.0,Variable,5.8,-,N/A,,Clear,0,2013-07-01 18:51:00
1:51 PM,96.1,46.9,19,29.91,10.0,NW,6.9,-,N/A,,Clear,320,2013-07-01 19:51:00
2:51 PM,97.0,41.0,14,29.88,10.0,Variable,3.5,-,N/A,,Clear,0,2013-07-01 20:51:00
3:51 PM,99.0,39.0,13,29.89,10.0,North,10.4,-,N/A,,Clear,350,2013-07-01 21:51:00
4:51 PM,100.0,37.9,12,29.87,10.0,NNW,12.7,-,N/A,,Clear,330,2013-07-01 22:51:00
5:51 PM,99.0,44.1,15,29.86,10.0,NNW,10.4,-,N/A,,Clear,340,2013-07-01 23:51:00
6:51 PM,90.0,55.0,30,29.88,10.0,North,8.1,-,N/A,,Clear,350,2013-07-02 00:51:00
7:51 PM,90.0,46.9,23,29.87,10.0,NNE,9.2,-,N/A,,Clear,20,2013-07-02 01:51:00
8:51 PM,80.1,46.0,30,29.89,10.0,North,9.2,-,N/A,,Clear,350,2013-07-02 02:51:00
9:51 PM,71.1,53.1,53,29.92,10.0,NNW,9.2,-,N/A,,Clear,340,2013-07-02 03:51:00
10:51 PM,75.0,48.0,38,29.93,10.0,SSW,4.6,-,N/A,,Clear,200,2013-07-02 04:51:00
11:51 PM,70.0,51.1,51,29.95,10.0,NE,3.5,-,N/A,,Clear,50,2013-07-02 05:51:00